Location: Madrid
(40.4167°N, 3.7036°W)
Time: 13:57:37
(UTC+00:00)

ISS - Pass Details

Date: 17 July 2024
Orbit: 410 x 424 km, 51.6° (Epoch: 14 July)

Event Time Altitude Azimuth Distance (km) Brightness Sun altitude
Rises 20:10:07 0° 283° (WNW) 2,338 1.6 -5.3°
Reaches altitude 10° 20:12:51 10° 307° (NW) 1,477 0.9 -5.8°
Maximum altitude 20:14:54 15° 346° (NNW) 1,198 -0.7 -6.1°
Drops below altitude 10° 20:16:58 10° 24° (NNE) 1,479 -0.8 -6.4°
Sets 20:19:42 0° 49° (NE) 2,343 -0.1 -6.9°
